User: anonymous   Login
Location: Caltech
(34.1382°N, 118.1253°W)
Time: 02:53:55
(UTC-07:00)
Language:

KITSAT 1 - Orbit

View from above orbital plane
View from above orbital plane
View from above satellite
View from above satellite

Ground track
Ground track

The orbit data is extracted from the following two-line orbital elements,

1 22077U 92052B   16121.45047696 -.00000020  00000-0  16821-3 0  9992
2 22077  66.0825 111.0950 0013638 240.1083 278.6522 12.86512544114290
Epoch (UTC): 30 April 2016 10:48:41
Eccentricity: 0.0013638
inclination: 66.0825°
perigee height: 1305 km
apogee height: 1326 km
right ascension of ascending node: 111.0950°
argument of perigee: 240.1083°
revolutions per day: 12.86512544
mean anomaly at epoch: 278.6522°
orbit number at epoch: 11429

The dashed part of the orbit path shows where the satellite is in the earth's shadow,  

DLR